Beaver Lake Weather Center

Moon Phase Calendar



Beaver Lake Water Level
Online Cameras

 


      

Current Conditions in Prairie Creek
6/27/2022 1:07:22 AM

69°F
Feels Like 69
Clouds
Humidity
64%
Pressure
30.27"
Wind
4.6 mph (N)
Dew Point
57°F
UV Index
0/10 (Low)
Visibility
6 mi

Hourly Forecast

Date & Time Mon, Jun 27
1:00 AM
Mon, Jun 27
2:00 AM
Mon, Jun 27
3:00 AM
Mon, Jun 27
4:00 AM
Mon, Jun 27
5:00 AM
Mon, Jun 27
6:00 AM
Mon, Jun 27
7:00 AM
Mon, Jun 27
8:00 AM
Mon, Jun 27
9:00 AM
Mon, Jun 27
10:00 AM
Mon, Jun 27
11:00 AM
Mon, Jun 27
12:00 PM
Mon, Jun 27
1:00 PM
Mon, Jun 27
2:00 PM
Mon, Jun 27
3:00 PM
Mon, Jun 27
4:00 PM
Mon, Jun 27
5:00 PM
Mon, Jun 27
6:00 PM
Mon, Jun 27
7:00 PM
Mon, Jun 27
8:00 PM
Mon, Jun 27
9:00 PM
Mon, Jun 27
10:00 PM
Mon, Jun 27
11:00 PM
Tue, Jun 28
12:00 AM
Tue, Jun 28
1:00 AM
Tue, Jun 28
2:00 AM
Tue, Jun 28
3:00 AM
Tue, Jun 28
4:00 AM
Tue, Jun 28
5:00 AM
Tue, Jun 28
6:00 AM
Tue, Jun 28
7:00 AM
Tue, Jun 28
8:00 AM
Tue, Jun 28
9:00 AM
Tue, Jun 28
10:00 AM
Tue, Jun 28
11:00 AM
Tue, Jun 28
12:00 PM
Tue, Jun 28
1:00 PM
Tue, Jun 28
2:00 PM
Tue, Jun 28
3:00 PM
Tue, Jun 28
4:00 PM
Tue, Jun 28
5:00 PM
Tue, Jun 28
6:00 PM
Tue, Jun 28
7:00 PM
Tue, Jun 28
8:00 PM
Tue, Jun 28
9:00 PM
Tue, Jun 28
10:00 PM
Tue, Jun 28
11:00 PM
Wed, Jun 29
12:00 AM
Condition
Clouds

Clouds

Clouds

Clouds

Clouds

Clouds

Clouds

Clouds

Clouds

Clouds

Clouds

Clouds

Clouds

Clouds

Clouds

Clouds

Clouds

Clouds

Clouds

Clouds

Clouds

Clouds

Clouds

Clouds

Clouds

Clouds

Clouds

Clouds

Clouds

Clouds

Clouds

Clear

Clear

Clear

Clear

Clear

Clear

Clear

Clear

Clear

Clear

Clear

Clear

Clear

Clear

Clear

Clear

Clear
Temperature 69°F69°F68°F68°F68°F66°F66°F65°F66°F69°F71°F76°F79°F81°F82°F82°F81°F79°F76°F70°F66°F64°F63°F61°F61°F60°F60°F59°F59°F57°F58°F63°F68°F72°F76°F79°F81°F83°F84°F84°F83°F82°F77°F70°F66°F64°F62°F61°F
Feels Like 69°F68°F68°F68°F67°F66°F65°F65°F66°F68°F71°F75°F79°F80°F81°F81°F80°F79°F75°F70°F66°F63°F62°F61°F60°F59°F59°F58°F58°F56°F58°F63°F67°F71°F75°F78°F80°F81°F82°F82°F82°F81°F77°F70°F65°F63°F61°F60°F
Cloudiness 75%79%84%89%93%99%99%100%100%100%100%93%94%91%89%90%91%88%86%99%90%87%90%92%91%76%84%86%79%71%60%1%0%0%0%0%0%2%1%1%1%0%0%0%0%0%0%0%
Visibility 6 mi6 mi6 mi6 mi6 mi6 mi6 mi6 mi6 mi6 mi6 mi6 mi6 mi6 mi6 mi6 mi6 mi6 mi6 mi6 mi6 mi6 mi6 mi6 mi6 mi6 mi6 mi6 mi6 mi6 mi6 mi6 mi6 mi6 mi6 mi6 mi6 mi6 mi6 mi6 mi6 mi6 mi6 mi6 mi6 mi6 mi6 mi6 mi
Precipitation 0%0%0%0%0%0%0%0%0%0%0%0%0%0%0%0%0%0%0%0%0%0%0%0%0%0%0%0%0%0%0%0%0%0%0%0%0%0%0%0%0%0%0%0%0%0%0%0%
Humidity 64%64%62%61%63%66%69%71%71%61%53%41%36%33%32%33%36%43%53%63%70%74%75%76%77%77%77%80%81%84%82%68%56%49%44%40%36%32%30%29%30%35%54%64%62%63%65%67%
Dew Point 57°F56°F55°F54°F54°F54°F55°F55°F56°F55°F53°F50°F49°F49°F49°F50°F51°F54°F57°F57°F56°F55°F54°F53°F53°F52°F52°F52°F52°F52°F52°F52°F51°F52°F52°F52°F51°F50°F49°F48°F49°F51°F59°F57°F52°F50°F50°F49°F
Pressure 30.27"30.27"30.27"30.24"30.24"30.24"30.27"30.3"30.3"30.3"30.3"30.27"30.24"30.24"30.21"30.18"30.18"30.18"30.18"30.18"30.21"30.24"30.24"30.24"30.24"30.24"30.24"30.24"30.24"30.24"30.27"30.27"30.27"30.24"30.24"30.21"30.21"30.18"30.15"30.15"30.15"30.12"30.12"30.15"30.15"30.18"30.18"30.21"
Wind Speed 8 mph7.6 mph8.3 mph8.5 mph8.2 mph7.9 mph7.4 mph7.4 mph7.8 mph9.1 mph9 mph8.9 mph8.1 mph6.8 mph6.7 mph6.9 mph8 mph8.4 mph8.2 mph7.7 mph5.1 mph4.5 mph4.4 mph4.9 mph5.4 mph6 mph6.4 mph5.4 mph5.3 mph5 mph4.7 mph6 mph6.3 mph5.5 mph5.1 mph4.4 mph3.4 mph3.6 mph4 mph4.2 mph4.2 mph4 mph3.2 mph3.2 mph2.7 mph2.7 mph2.8 mph3 mph
Wind
Direction
38°
NE
32°
NNE
40°
NE
48°
NE
51°
NE
47°
NE
55°
NE
55°
NE
57°
ENE
64°
ENE
75°
ENE
72°
ENE
68°
ENE
61°
ENE
50°
NE
44°
NE
32°
NNE
27°
NNE
25°
NNE
35°
NE
34°
NE
36°
NE
52°
NE
58°
ENE
54°
NE
66°
ENE
83°
E
91°
E
88°
E
88°
E
87°
E
99°
E
102°
ESE
96°
E
94°
E
87°
E
80°
E
54°
NE
47°
NE
47°
NE
50°
NE
66°
ENE
81°
E
91°
E
85°
E
73°
ENE
82°
E
105°
ESE

Daily Forecast

Date High Low Precip. Humidity
Today
Jun 27

Clouds
82 °F
63 °F
0%
36%
Tuesday
Jun 28

Clear
84 °F
57 °F
0%
36%
Wednesday
Jun 29

Clear
88 °F
58 °F
0%
28%
Thursday
Jun 30

Clear
90 °F
62 °F
0%
37%
Friday
Jul 1

Clear
89 °F
70 °F
1%
45%
Saturday
Jul 2

Rain
88 °F
68 °F
100%
51%
Sunday
Jul 3

Rain
82 °F
69 °F
100%
84%
Monday
Jul 4

Rain
82 °F
70 °F
100%
86%
Tuesday
Jul 5

Rain
92 °F
71 °F
39%
53%
Wednesday
Jul 6

Clouds
93 °F
70 °F
7%
49%
Thursday
Jul 7

Clouds
93 °F
70 °F
5%
40%
Friday
Jul 8

Rain
94 °F
72 °F
30%
42%
Saturday
Jul 9

Clear
97 °F
73 °F
0%
40%
Sunday
Jul 10

Clouds
98 °F
74 °F
0%
39%
Monday
Jul 11

Clouds
95 °F
75 °F
0%
45%
Tuesday
Jul 12

Rain
83 °F
73 °F
64%
62%

Temperature 8-14 Day Outlook



Precipitation 8-14 Day Outlook






About Us
Contact Us
Site Map
Search Site
Advertise With Us
   
Beaver.USLakes.info
THE BEAVER LAKE WEBSITE

Copyright 2022, Lakes Online
Privacy    |    Legal